THOR ABLESTAR DEB, 244

Orbit data source: Space-Track

THOR ABLESTAR DEB, 244 is space debris in LEO originally from a launch on Thu, 29 Jun 1961 UTC launched from the Air Force Eastern Test Range (AFETR). Debris objects in space refer to the collection of defunct objects orbiting the Earth. Examples of debris include non-operational satellites, rocket bodies, and fragments generated from explosions, collisions, or faulty payload assembly.

Loading next visibility...
THOR ABLESTAR DEB details
Identifier
244, 1961-015BZ
Orbit
LEO
Last TLE update22 hours ago
Origin
Flag of USUSAF SSD (US)
ManufacturerUnknown
MissionSpacecraft
Bus & MotorUnknown
MassUnknown
Launch date (UTC)
1961-06-29 (63 years ago)
Launch vehicleUnknown
Launch site
Air Force Eastern Test Range (AFETR)
Object type
Payload
Rocket body
Debris
Shape & HBRUnknown
Radar Cross SectionSmall (<0.1 m²)

Expand to show TLE details & history

TLE from 22 hours ago
0 THOR ABLESTAR DEB
1 00244U 61015BZ  24355.74055958  .00000385  00000-0  33440-3 0  9998
2 00244  66.8403 124.7954 0063870 112.5750 248.2107 13.95425539223306
Epoch: 2024-12-20T17:46Z
Definitive object data (Epoch: 2024-12-20T17:46:24.347Z)
Latitude0.00002°
Longitude128.39223°
Altitude929.298 km
Speed7.379 km/s
True Right ascension08h 19m 10s
True Declination0° 00' 00"
Sunlit
Object was in full shadow at TLE epoch
Visualization TLE readout
Latitude-23.76811°
Longitude115.31572°
Altitude952.012 km
Speed7.358 km/s
Apparent Right ascension05h 38m 06s
Apparent Declination-35° 36' 12"
Sunlit
Object is in full shadow
Visualization observer readout
Local Sidereal Time15:03:02
Azimuth265.538° W
Elevation-59.294°
Doppler factor1
Orbital elements
Apogee altitude954.601 km
Perigee altitude861.527 km
Semi-major axis7,286.201 km
Eccentricity0.006387
Inclination66.8403°
RAAN124.7954°
Arg. of periapsis112.575°
True anomaly247.53312°
Mean anomaly248.2107°
Eccentric anomaly247.87171°
Mean motion3.48973 °/min
BSTAR0.0003344
Orbital period103.16 mins
Loading maneuver chart data...

THOR ABLESTAR DEB Visibility forecast

Observer location: undefined°, undefined

Span
Click to sort rows by Start time (UTC) header in descending order
Start Az.
Max El. time (UTC)
Max El. Az.
Max El.
End time (UTC)
End Az.
8 mins2024-12-21 18:23:39.116Z357.577° N2024-12-21 18:27:39.116Z49.434° ENE24.134°2024-12-21 18:31:39.116Z100.296° ESE
9 mins2024-12-21 20:09:39.116Z316.437° NNW2024-12-21 20:13:39.116Z256.18° W37.477°2024-12-21 20:18:39.116Z175.757° S
9 mins2024-12-22 09:27:39.116Z169.113° S2024-12-22 09:31:39.116Z112.57° SE31.163°2024-12-22 09:36:39.116Z46.983° ENE
9 mins2024-12-22 11:13:39.116Z249.312° W2024-12-22 11:17:39.116Z304.945° NW29.94°2024-12-22 11:22:39.116Z11.22° NNE
|